Location: Rautajoki
(61.3667°N, 22.9000°E)
Time: 19:41:50
(UTC+00:00)

Daily predictions for brighter satellites

Satellite Brightness Start Highest point End
(mag) Time Altitude Azimuth Time Altitude Azimuth Time Altitude Azimuth
Meteor 2-15 4.5 14:16:38 10° S 14:22:44 84° ESE 14:28:51 10° NNE
Meteor 2-15 Rocket 4.5 14:17:21 10° S 14:23:25 73° E 14:29:31 10° NNE
NOSS 3-3 (A) 4.3 14:17:10 10° W 14:23:37 80° NNW 14:31:07 10° ENE
Cosmos 1125 Rocket 3.7 14:18:33 10° NNW 14:23:38 49° NE 14:28:41 10° ESE
NOSS 3-3 (C) 4.3 14:17:17 10° W 14:23:43 80° NNW 14:31:12 10° ENE
Cosmos 2360 Rocket 2.9 14:19:36 10° S 14:24:45 38° ESE 14:29:55 10° NE
CZ-4B R/B 3.1 14:21:47 10° SSE 14:25:58 87° W 14:30:22 10° NNW
Cosmos-2242 3.3 14:22:40 10° S 14:26:53 49° E 14:31:09 10° NNE
Cosmos 44 3.5 14:25:27 10° WNW 14:30:29 65° NNE 14:35:46 10° E
Cosmos 1633 2.5 14:27:19 10° NNW 14:30:55 84° E 14:34:30 10° SSE
Cosmos 921 Rocket 3.7 14:27:34 10° S 14:31:48 41° ESE 14:36:05 10° NE
CZ-4 R/B 3.1 14:29:53 10° ENE 14:32:00 14° NE 14:34:09 10° N
Cosmos 2219 Rocket 3.5 14:29:56 10° SSE 14:34:14 23° ESE 14:38:30 10° NE
Cosmos 1500 Rocket 4.0 14:30:53 10° N 14:35:02 40° ENE 14:39:12 10° SE
ALOS 3.7 14:31:18 10° SSW 14:35:44 42° W 14:40:12 10° NNW
Cosmos 192 4.4 14:31:12 10° SSW 14:36:10 83° ESE 14:41:11 10° NE
Cosmos 1980 Rocket 2.5 14:31:28 10° WSW 14:37:02 61° NW 14:42:37 10° NE
SL-16 R/B 2.3 14:32:39 10° SSW 14:38:18 74° SE 14:44:00 10° NE
CZ-4B R/B 3.3 14:33:31 10° SE 14:38:41 53° ENE 14:43:50 10° NNW
Meteor 2-10 Rocket 3.9 14:34:19 10° SSW 14:39:19 66° WNW 14:44:28 10° NNE
Cosmos 2151 4.0 14:36:17 10° NNW 14:40:23 50° W 14:44:29 10° S
Okean 3 Rocket 3.9 14:37:05 10° NNW 14:41:33 76° W 14:46:02 10° S
Cosmos 2221 3.7 14:38:49 10° SE 14:42:16 23° E 14:45:42 10° NNE
USA 267 3.9 14:36:21 10° ESE 14:42:48 59° SSW 14:49:14 10° W
Cosmos 2237 Rocket 4.0 14:41:20 10° ESE 14:42:48 11° E 14:44:16 10° ENE
NOAA 12 4.3 14:38:18 10° SE 14:43:27 52° ENE 14:48:37 10° NNW
Cosmos 468 Rocket 4.4 14:38:49 10° S 14:43:38 43° ESE 14:48:31 10° NE
Cosmos 1939 Rocket 4.0 14:43:16 10° ESE 14:46:20 22° NE 14:49:25 10° N
Cosmos 2369 Rocket 2.9 14:41:46 10° NW 14:47:06 37° NNE 14:52:23 10° E
Cosmos 1766 Rocket 4.0 14:47:46 10° NNW 14:52:13 67° W 14:56:36 10° S
Cosmos 1869 4.1 14:48:33 10° SSE 14:52:14 34° E 14:55:58 10° NNE
Cosmos 540 Rocket 4.4 14:48:12 10° SSE 14:52:37 30° ESE 14:57:02 10° NE
Cosmos 2369 4.4 14:47:16 10° WSW 14:52:44 46° NNW 14:58:12 10° NE
Meteor 2-3 Rocket 4.3 14:48:17 10° NNW 14:54:04 65° W 14:59:49 10° S
SJ 16-02 4.2 14:52:13 10° NW 14:55:35 21° W 14:58:57 10° SSW
YAOGAN 1 3.9 14:52:43 10° E 14:55:50 20° NE 14:58:58 10° N
Cosmos 1812 Rocket 4.0 14:51:57 10° SSW 14:56:15 63° WNW 15:00:36 10° N
GEOS 3 Rocket 3.8 14:51:11 10° ENE 14:56:33 81° NNW 15:01:57 10° WSW
Cosmos 1743 Rocket 3.6 14:52:36 10° N 14:57:04 58° ENE 15:01:29 10° SSE
Cosmos 841 Rocket 4.3 14:55:58 10° SSE 15:00:36 33° ESE 15:05:01 11° NE
Okean-O 3.7 14:57:05 10° ESE 15:00:36 24° NE 15:04:09 10° N
AQUARIUS 4.2 14:56:22 10° SE 15:00:46 55° ENE 15:05:12 10° NNW
CORIOLIS 4.2 14:56:15 10° SE 15:01:35 61° ENE 15:06:59 10° NNW
Envisat 3.0 14:58:34 10° SSE 15:03:40 88° ENE 15:08:48 10° NNW
Cosmos 1408 Rocket 3.7 14:59:14 10° NNW 15:03:41 83° W 15:08:05 10° S
Cosmos 2237 4.3 14:58:48 10° SSW 15:04:25 65° SE 15:09:50 11° NE
SL-16 R/B 3.5 14:59:15 10° NNE 15:05:13 47° NW 15:11:10 10° SW
Cosmos 2315 Rocket 4.0 14:59:03 10° S 15:05:17 78° E 15:11:38 10° NNE
SeaSat 1 3.8 15:03:57 12° NE 15:07:33 25° N 15:11:35 10° NW
Cosmos 2154 Rocket 4.0 15:02:11 10° NNW 15:08:30 64° ENE 15:14:48 10° SSE
Sich 1 3.5 15:04:52 10° N 15:09:02 38° ENE 15:13:09 10° SE
H-2A R/B 3.1 15:05:35 10° E 15:09:47 25° NE 15:13:56 10° N
H-2A R/B 2.6 15:05:44 10° SSE 15:10:03 84° WSW 15:14:14 10° NNW
Cosmos 2297 3.8 15:05:14 10° NW 15:10:52 59° NE 15:16:30 10° ESE
H-2A R/B 3.3 15:09:11 10° S 15:13:00 64° WSW 15:16:53 10° NNW
Okean O Rocket 1.5 15:09:13 10° SSE 15:13:33 69° ENE 15:17:57 10° NNW
Cosmos 405 Rocket 2.6 15:11:36 10° NNW 15:15:27 76° ENE 15:19:22 10° SSE
Cosmos 2341 Rocket 4.2 15:09:34 10° N 15:15:37 47° ENE 15:21:41 10° SE
Cosmos 1805 Rocket 3.7 15:12:57 10° N 15:17:21 52° ENE 15:21:43 10° SE
Cosmos 1842 Rocket 3.9 15:13:31 10° SSE 15:17:38 43° E 15:21:46 10° NNE
Aureole 2 Rocket 4.4 15:16:14 10° NW 15:18:33 25° WSW 15:20:55 10° S
Cosmos 1943 Rocket 2.4 15:15:05 10° NW 15:20:29 50° NNE 15:25:53 10° ESE
Cosmos 1666 Rocket 4.1 15:19:12 10° N 15:23:16 35° ENE 15:27:19 10° SE
USA 281 3.2 15:18:14 10° SE 15:24:45 68° NE 15:31:17 10° NW
Cosmos 2322 Rocket 2.3 15:21:10 10° SW 15:26:53 79° NW 15:31:56 14° NE
YAOGAN 6 2.9 15:25:51 10° S 15:29:29 70° WSW 15:33:08 10° NNW
Cosmos 1570 Rocket 4.4 15:24:31 10° S 15:29:34 46° ESE 15:33:39 15° NE
Cosmos 44 Rocket 3.6 15:25:21 10° WNW 15:30:20 57° N 15:33:56 19° E
Cosmos 2285 Rocket 4.1 15:24:38 10° NW 15:31:02 60° NE 15:37:22 10° SE
SMAP 3.1 15:26:42 10° SSE 15:31:23 85° WSW 15:36:06 10° NNW
Helios 1A Rocket 3.5 15:30:44 10° ESE 15:34:22 33° ENE 15:38:01 10° N
Cosmos 2327 Rocket 4.4 15:30:10 10° NNW 15:36:20 87° E 15:42:31 10° SSE
Cosmos 2074 Rocket 4.3 15:30:41 10° NNW 15:36:53 72° W 15:43:06 10° S
CZ-4C R/B 3.1 15:33:48 12° NNE 15:37:02 59° ESE 15:40:37 10° S
ARGOS 3.9 15:34:14 13° ESE 15:38:17 30° NE 15:42:56 10° N
Meteor 1-20 Rocket 4.4 15:34:02 10° NNW 15:39:45 51° ENE 15:45:27 10° SE
Feng Yun 1-1 Rocket 4.2 15:35:03 10° SE 15:40:47 70° ENE 15:46:24 10° NNW
SL-08 R/B 4.1 15:37:14 10° NNE 15:42:07 56° WNW 15:46:54 10° SW
Cosmos 2333 Rocket 2.4 15:36:39 10° SSW 15:42:10 54° ESE 15:46:09 19° NE
ADEOS Rocket 3.5 15:34:44 10° NNE 15:42:12 78° ESE 15:50:01 10° SSW
Meteor 1-27 4.2 15:37:37 10° SSW 15:43:16 89° WNW 15:49:03 10° NNE
CZ-2C R/B 3.3 15:39:11 10° SE 15:43:54 42° ENE 15:48:29 10° N
SL-8 Rocket 4.1 15:37:50 10° N 15:43:56 54° ENE 15:50:03 10° SE
H-2A R/B 2.1 15:40:57 13° NNE 15:44:32 52° ESE 15:48:38 10° S
Cosmos 1607 4.2 15:38:29 10° SSW 15:44:43 59° SE 15:49:06 21° ENE
Cosmos 1697 Rocket 3.8 15:41:18 10° W 15:46:27 34° NNW 15:50:09 17° NE
COSMOS 2428 3.0 15:41:58 10° S 15:47:28 49° ESE 15:51:10 20° NE
Cosmos 2084 Rocket 3.8 15:43:52 10° SW 15:47:53 48° SE 15:49:54 26° E
Landsat 5 3.5 15:43:42 10° NNE 15:47:59 70° ESE 15:52:23 10° S
Ariane Rocket 4.2 15:47:27 21° NE 15:48:11 21° NE 15:51:58 10° N
Cosmos 1606 3.8 15:44:57 10° SE 15:48:02 26° E 15:48:02 26° E
Cosmos 2278 Rocket 3.3 15:43:39 10° NW 15:49:05 48° WSW 15:54:31 10° S
Cosmos 405 2.9 15:45:47 10° S 15:49:15 64° ESE 15:51:31 20° NNE
Cosmos 1763 Rocket 3.4 15:45:15 10° SW 15:50:21 86° NW 15:54:29 16° NNE
Cosmos 1862 3.8 15:47:14 10° NNW 15:51:17 63° W 15:55:16 10° S
Cosmos 1633 Rocket 3.2 15:50:49 10° N 15:55:08 50° ENE 15:59:25 10° SE
Meteor 1-25 Rocket 4.2 15:50:26 10° NNW 15:55:59 59° ENE 16:01:32 10° SE
Resurs 01 Rocket 3.8 16:00:03 11° NNE 16:00:03 11° NNE 16:00:40 10° NNE
Meteor 2-12 Rocket 4.4 15:55:51 10° NNW 16:02:04 85° ENE 16:08:14 10° SSE
Cosmos 1125 Rocket 4.4 16:00:47 10° NW 16:05:50 52° WSW 16:10:52 10° S
CZ-4 R/B 1.4 16:02:24 10° SE 16:06:14 51° ENE 16:10:11 10° N
Cosmos 2056 Rocket 4.5 16:02:52 10° NNW 16:07:23 28° NNE 16:08:36 26° NE
Cosmos 2360 Rocket 2.3 16:02:53 10° SW 16:08:32 72° NW 16:12:25 21° NE
Cosmos 921 Rocket 4.0 16:05:44 10° SW 16:10:07 48° NW 16:13:39 15° NNE
Cosmos 1602 4.1 16:06:41 10° N 16:10:27 41° ENE 16:10:50 40° E
Cosmos 44 3.8 16:06:47 10° WNW 16:11:54 67° SW 16:16:57 11° SE
Cosmos 2208 Rocket 4.0 16:07:33 10° SSW 16:12:50 70° ESE 16:16:12 23° NE
Cosmos 1356 3.5 16:11:05 10° NNW 16:14:31 76° WSW 16:17:57 10° S
CZ-2D R/B 3.1 16:10:46 10° SSE 16:14:34 75° ENE 16:18:26 10° NNW
IRS-1C Rocket 4.1 16:09:21 10° SSE 16:14:39 89° ENE 16:20:00 10° NNW
CSL-04 DEB 4.3 16:12:41 24° NNE 16:15:01 69° ESE 16:19:08 10° S
NOSS 3-3 (A) 4.3 16:08:14 10° WNW 16:15:02 81° NNE 16:19:47 26° E
NOSS 3-3 (C) 4.3 16:08:21 10° WNW 16:15:08 81° NNE 16:19:51 26° E
ERS-2 2.7 16:16:17 39° ESE 16:16:17 39° ESE 16:19:19 10° S
CSL-04 Debris 4.3 16:11:01 10° SE 16:16:22 54° ENE 16:21:44 10° NNW
Cosmos 2219 Rocket 2.1 16:11:46 10° SSW 16:17:25 75° SE 16:20:39 27° NE
CZ-4B R/B 4.4 16:14:21 10° S 16:19:25 43° W 16:24:30 10° NNW
Cosmos 2221 2.7 16:15:07 10° SSW 16:19:28 71° WNW 16:23:46 10° NNE
Cosmos 1939 Rocket 2.9 16:17:01 10° SSE 16:20:54 77° WSW 16:24:51 10° NNW
SJ-11-01 4.4 16:18:51 21° SE 16:21:48 52° ENE 16:26:26 10° NNW
Cosmos 1980 Rocket 3.3 16:16:55 10° WNW 16:22:01 34° NNW 16:24:50 22° NE
SL-16 R/B 3.0 16:17:21 10° WSW 16:22:48 46° NNW 16:26:18 22° NE
Cosmos 371 Rocket 4.2 16:19:10 10° NNW 16:23:34 31° NNE 16:23:58 30° NE
Cosmos 2237 Rocket 2.6 16:20:12 10° S 16:25:26 42° ESE 16:26:47 36° E
CZ-4B R/B 2.7 16:26:55 26° S 16:26:55 26° S 16:28:28 10° S
USA 267 4.5 16:20:41 10° SSE 16:26:41 38° SSW 16:32:41 10° W
Cosmos 2218 Rocket 3.8 16:21:27 10° NNW 16:27:40 78° ENE 16:33:49 10° SSE
Cosmos 1869 4.5 16:24:30 10° SW 16:28:26 44° WNW 16:32:24 10° N
Cosmos 1470 Rocket 3.5 16:25:09 10° N 16:29:30 60° ENE 16:31:14 33° SE
YAOGAN 1 2.4 16:27:02 10° SSE 16:31:22 73° ENE 16:35:42 10° NNW
USA 81 3.9 16:26:17 10° N 16:31:38 81° E 16:36:56 10° SSE
Cosmos 1656 Rocket 3.8 16:26:00 10° NW 16:31:39 56° NE 16:33:31 39° E
Cosmos 2369 Rocket 2.1 16:26:11 10° NW 16:31:57 74° NE 16:34:50 30° ESE
DNEPR-1 R/B 4.3 16:26:01 10° WSW 16:32:50 85° NNW 16:35:18 37° ENE
COSMO-SKYMED 1 2.8 16:33:45 47° ESE 16:33:45 47° ESE 16:37:40 10° S
Cosmos 2322 3.7 16:27:48 10° SW 16:33:30 80° NW 16:36:40 28° NE
Cosmos 540 Rocket 3.5 16:28:44 10° SW 16:33:52 75° NW 16:36:51 26° NNE
GEOS 3 Rocket 3.9 16:32:17 36° ENE 16:34:25 61° N 16:39:45 10° W
Meteor 1-11 Rocket 4.3 16:29:57 10° NNW 16:35:10 36° NE 16:35:21 36° ENE
Okean-O 2.5 16:32:11 10° SSE 16:36:39 90° NNW 16:41:07 10° NNW
Cosmos 2366 rocket 3.9 16:33:57 10° NNW 16:40:15 87° ENE 16:46:27 10° SSE
CSL-04 Rocket 3.5 16:37:05 16° SE 16:41:28 70° ENE 16:46:47 10° NNW
Cosmos 841 Rocket 3.7 16:36:59 10° SW 16:42:13 70° NW 16:45:05 27° NNE
Cosmos 1980 3.8 16:37:45 10° SSW 16:43:16 54° ESE 16:44:33 44° ENE
SeaSat 1 3.3 16:43:44 32° NNE 16:44:11 33° NNE 16:48:34 10° NW
Sich 1 4.2 16:42:36 10° NNW 16:46:50 45° W 16:51:01 10° SSW
Meteor 1-14 Rocket 4.2 16:42:44 10° NNW 16:48:38 77° ENE 16:54:37 10° SSE
H-2A R/B 1.9 16:43:22 10° SSE 16:48:40 79° ENE 16:53:51 10° NNW
Okean O Rocket 3.9 16:46:42 10° SSW 16:50:21 25° W 16:54:02 10° NW
Nadezhda 1 Rocket 4.3 16:45:31 10° SSW 16:51:52 71° WNW 16:58:19 10° NNE
Cosmos 2333 4.5 16:50:54 10° WSW 16:56:32 65° NW 16:59:03 33° NNE
SL-08 RB Rocket 4.1 16:58:16 49° NNE 16:58:16 49° NNE 17:02:04 10° NNW
Cosmos 1933 Rocket 3.4 16:55:49 10° NNW 17:00:11 76° NE 17:00:11 76° NE
Cosmos 1943 Rocket 2.5 16:58:59 10° NW 17:04:28 63° WSW 17:07:55 23° SSE
Cosmos 1814 Rocket 4.4 16:59:50 10° SW 17:05:08 64° NW 17:07:28 33° NNE
SL-24 DEB 4.1 17:01:28 10° N 17:06:18 78° E 17:11:04 10° S
Cosmos 2239 Rocket 4.4 17:02:46 10° NNW 17:08:55 64° ENE 17:10:12 52° ESE
Helios 1A Rocket 3.7 17:05:31 10° S 17:09:26 49° WSW 17:13:23 10° NNW
USA 281 4.1 17:03:16 10° S 17:09:35 47° WSW 17:15:56 10° NW
Meteor 1-26 Rocket 4.3 17:04:46 10° S 17:10:40 59° E 17:11:01 58° E
Cosmos 2322 Rocket 3.3 17:06:23 10° W 17:11:42 38° NNW 17:13:44 29° NNE
Cosmos 44 Rocket 3.2 17:07:09 10° WNW 17:12:16 86° NNE 17:12:40 77° ESE
SL-16 R/B 3.5 17:07:22 10° S 17:09:55 24° SSE 17:09:55 24° SSE
Cosmos 2263 4.1 17:11:48 10° NW 17:17:30 85° SW 17:18:36 59° SSE
ARGOS 3.1 17:15:45 35° SSE 17:18:08 86° WSW 17:23:35 10° NNW
H-2A R/B 3.6 17:18:03 18° N 17:20:25 33° WNW 17:24:09 10° WSW
SKYMED 2 3.9 17:22:23 61° SW 17:22:23 61° SW 17:26:01 10° SSW
NOSS 0 Rocket 3.8 17:17:04 10° SW 17:23:20 86° SE 17:24:40 58° NE
Cosmos 1606 3.6 17:19:52 10° SSW 17:23:04 48° WSW 17:23:04 48° WSW
CZ-2C R/B 3.8 17:18:54 10° S 17:23:50 49° W 17:28:35 10° NNW
MetOp-A 4.3 17:25:47 57° NNE 17:25:47 57° NNE 17:30:21 10° NNW
Cosmos 836 Rocket 4.4 17:19:45 10° SSW 17:25:00 83° SE 17:25:00 83° SE
Ariane Rocket 3.5 17:27:39 48° N 17:27:39 48° N 17:31:28 10° NNW
Cosmos 2333 Rocket 2.7 17:20:55 10° WSW 17:26:32 57° NW 17:28:10 42° NNE
Cosmos 2084 Rocket 4.0 17:23:03 10° WSW 17:26:26 56° W 17:26:26 56° W
MOS 1 4.3 17:31:22 65° NNE 17:31:22 65° NNE 17:36:31 10° NNW
COSMOS 2428 3.1 17:26:03 10° WSW 17:31:45 61° NW 17:33:12 47° NNE
Cosmos 1697 Rocket 3.7 17:26:40 10° NW 17:31:50 34° NNE 17:31:53 34° NNE
Cosmos 1607 4.0 17:25:34 10° WSW 17:32:00 75° NNW 17:33:13 59° NE
USA 215 3.6 17:32:16 45° SSE 17:32:19 45° SSE 17:38:33 10° SW
EO 1 Delta rocket 4.1 17:32:12 39° N 17:34:06 79° WNW 17:39:50 10° SSW
Resurs 01 Rocket 3.9 17:37:37 15° N 17:37:37 15° N 17:38:26 10° N
Cosmos 724 4.2 17:28:45 10° WSW 17:34:46 89° NNW 17:35:18 76° NE
CZ-4 R/B 3.2 17:38:02 10° SSW 17:41:31 29° W 17:45:05 10° NNW
Cosmos 1934 Rocket 3.9 17:35:27 10° NNW 17:41:41 73° ENE 17:41:41 73° ENE
Cosmos 2181 Rocket 4.2 17:35:34 10° SSW 17:42:00 74° WNW 17:48:24 10° NNE
Cosmos 1821 Rocket 4.0 17:36:50 10° NNW 17:43:01 79° W 17:45:18 42° S
Meteor 1-5 Rocket 4.4 17:41:13 10° NNW 17:47:13 75° WSW 17:48:27 57° SSW
ERS-2 4.4 17:50:53 24° WSW 17:50:53 24° WSW 17:52:42 10° SW
Cosmos 2056 Rocket 4.2 17:45:09 10° NNW 17:48:56 47° NNW 17:48:56 47° NNW
Cosmos 2360 Rocket 3.3 17:48:09 10° W 17:53:21 36° NNW 17:54:11 34° N
Cosmos 2219 Rocket 2.9 17:56:21 10° WSW 18:01:47 46° NNW 18:02:22 44° NNW
Cosmos 1980 Rocket 3.4 18:02:19 10° NW 18:06:35 32° N 18:06:35 32° N
SL-16 R/B 3.4 18:03:05 10° WNW 18:08:09 32° N 18:08:09 32° N
Cosmos 2237 Rocket 2.6 18:03:44 10° SW 18:08:38 61° W 18:08:38 61° W
COSMO-SKYMED 1 4.3 18:10:59 29° W 18:10:59 29° W 18:13:37 10° SW
GEOS 3 Rocket 4.2 18:13:24 55° NW 18:13:24 55° NW 18:17:41 10° WNW
Cosmos 1656 Rocket 4.3 18:09:48 10° NW 18:14:55 53° WSW 18:14:55 53° WSW
Cosmos 2369 Rocket 3.4 18:10:30 10° NW 18:15:43 38° WSW 18:16:38 35° SW
Meteor 1-11 Rocket 4.3 18:13:24 10° NNW 18:17:52 54° NW 18:17:52 54° NW
SeaSat 1 3.9 18:23:31 32° NNW 18:23:31 32° NNW 18:26:11 10° NW
Cosmos 1980 4.5 18:21:50 10° WSW 18:26:25 49° WNW 18:26:25 49° WNW
H-2A R/B 3.9 18:24:08 10° SSW 18:28:39 27° W 18:33:05 10° NNW
Cosmos 1943 Rocket 4.5 18:43:38 10° WNW 18:47:16 18° W 18:49:30 14° SW
SL-16 R/B 4.4 18:50:46 10° SW 18:51:51 16° SW 18:51:51 16° SW
Cosmos 2322 Rocket 3.9 18:52:02 10° WNW 18:55:32 28° NNW 18:55:32 28° NNW
Cosmos 2333 Rocket 3.9 19:06:41 10° WNW 19:10:10 28° NW 19:10:10 28° NW
COSMOS 2428 4.5 19:11:47 10° WNW 19:15:13 28° NW 19:15:13 28° NW
Cosmos 2360 Rocket 4.4 19:33:41 10° NW 19:35:56 21° NW 19:35:56 21° NW
Cosmos 2219 Rocket 4.4 19:41:57 10° WNW 19:44:05 20° NW 19:44:05 20° NW
